Sarasota, FL

3:40 AM EDT on July 25, 2017 (GMT -0400)
Sarasota-bradenton

Weather History for KSRQ - February, 2012

Change the Weather History Date:

Friday, February 3, 2012

  Actual Average Record
Temperature  
Mean Temperature 70 °F 62 °F  
Max Temperature 76 °F 72 °F 85 °F (1990)
Min Temperature 63 °F 53 °F 27 °F (1917)
Degree Days  
Heating Degree Days 0 4  
Month to date heating degree days 0 12  
Since 1 July heating degree days 160 332  
Cooling Degree Days 5 1  
Month to date cooling degree days 12 3  
Year to date cooling degree days 46 55  
Growing Degree Days 20 (Base 50)    
Moisture  
Dew Point 61 °F    
Average Humidity 74    
Maximum Humidity 87    
Minimum Humidity 58    
Precipitation  
Precipitation 0.00 in 0.04 in 1.45 in (1972)
Month to date precipitation 0.00 0.13  
Year to date precipitation 0.99 2.62  
Sea Level Pressure  
Sea Level Pressure 30.17 in    
Wind  
Wind Speed 10 mph (ENE)    
Max Wind Speed 20 mph    
Max Gust Speed 24 mph    
Visibility 10 miles    
Events      
T = Trace of Precipitation, MM = Missing Value Source: NWS Daily Summary

Daily Weather History Graph

Daily Weather History Graph

Search for Another Location

Airport or City:

Trip Planner

Search our weather history database for the weather conditions in past years. The results will help you decide how hot, cold, wet, or windy it might be!

Date:

Astronomy

Feb. 03, 2012 Rise Set
Actual Time 7:15 AM EST 6:12 PM EST
Civil Twilight 6:51 AM EST 6:37 PM EST
Nautical Twilight 6:23 AM EST 7:04 PM EST
Astronomical Twilight 5:55 AM EST 7:32 PM EST
Moon 2:24 PM EST (2/3) 3:39 AM EST (2/3)
Length of Visible Light 11h 45m
Length of Day
10h 57m
Waxing Gibbous, 81% of the Moon is Illuminated
Feb 3
Waxing Gibbous
Feb 7
Full
Feb 14
Last Quarter
Feb 21
New
Feb 29
First Quarter

Hourly Weather History & Observations

Time (EST) Temp. Dew Point Humidity Pressure Visibility Wind Dir Wind Speed Gust Speed Precip Events Conditions
12:53 AM 66.9 °F 60.1 °F 79% 30.14 in 10.0 mi East 8.1 mph - N/A   Clear
1:53 AM 66.0 °F 60.1 °F 81% 30.14 in 10.0 mi ENE 6.9 mph - N/A   Clear
2:53 AM 66.9 °F 62.1 °F 84% 30.15 in 10.0 mi ENE 5.8 mph - N/A   Scattered Clouds
2:59 AM 66.2 °F 62.6 °F 88% 30.15 in 10.0 mi ENE 5.8 mph - N/A   Mostly Cloudy
3:19 AM 66.2 °F 62.6 °F 88% 30.15 in 10.0 mi ENE 5.8 mph - N/A   Scattered Clouds
3:53 AM 64.9 °F 61.0 °F 87% 30.14 in 10.0 mi ENE 5.8 mph - N/A   Clear
4:53 AM 64.9 °F 61.0 °F 87% 30.14 in 10.0 mi ENE 6.9 mph - N/A   Clear
5:53 AM 64.0 °F 61.0 °F 90% 30.15 in 10.0 mi ENE 5.8 mph - N/A   Clear
6:53 AM 64.0 °F 60.1 °F 87% 30.17 in 10.0 mi ENE 6.9 mph - N/A   Clear
7:53 AM 64.0 °F 60.1 °F 87% 30.19 in 10.0 mi ENE 8.1 mph - N/A   Clear
8:53 AM 66.9 °F 61.0 °F 81% 30.21 in 10.0 mi ENE 8.1 mph - N/A   Clear
9:53 AM 70.0 °F 62.1 °F 76% 30.21 in 10.0 mi East 11.5 mph - N/A   Clear
10:53 AM 73.0 °F 62.1 °F 68% 30.21 in 10.0 mi East 10.4 mph - 0.02 in   Clear
11:53 AM 75.0 °F 61.0 °F 62% 30.20 in 10.0 mi East 16.1 mph 21.9 mph N/A   Partly Cloudy
12:53 PM 75.0 °F 61.0 °F 62% 30.17 in 10.0 mi East 13.8 mph - N/A   Mostly Cloudy
1:53 PM 75.9 °F 61.0 °F 60% 30.15 in 10.0 mi East 12.7 mph - N/A   Mostly Cloudy
2:53 PM 75.9 °F 59.0 °F 56% 30.13 in 10.0 mi East 11.5 mph 20.7 mph N/A   Mostly Cloudy
3:53 PM 75.9 °F 59.0 °F 56% 30.14 in 10.0 mi East 11.5 mph - N/A   Partly Cloudy
4:53 PM 75.0 °F 59.0 °F 57% 30.14 in 10.0 mi ENE 10.4 mph - N/A   Partly Cloudy
5:53 PM 73.9 °F 60.1 °F 62% 30.16 in 10.0 mi ENE 12.7 mph - N/A   Clear
6:53 PM 72.0 °F 60.1 °F 66% 30.18 in 10.0 mi ENE 15.0 mph 19.6 mph N/A   Clear
7:53 PM 71.1 °F 60.1 °F 68% 30.19 in 10.0 mi ENE 10.4 mph - N/A   Partly Cloudy
8:53 PM 71.1 °F 59.0 °F 66% 30.19 in 10.0 mi ENE 11.5 mph - N/A   Clear
9:53 PM 69.1 °F 59.0 °F 70% 30.19 in 10.0 mi ENE 9.2 mph - N/A   Clear
10:53 PM 68.0 °F 59.0 °F 73% 30.19 in 10.0 mi East 9.2 mph - N/A   Clear
11:53 PM 66.9 °F 60.1 °F 79% 30.17 in 10.0 mi East 9.2 mph - N/A   Clear